Regional Weather Roundup
Issued by NWS Green Bay, WI

Home | Current Version | Previous Version | Graphics & Text | Print | Product List | Glossary Off
Versions: 1 2 3 4 5 6 7 8 9 10 11 12 13 14 15 16 17 18 19 20 21 22 23 24 25 26 27 28 29 30 31 32 33 34 35 36 37 38 39 40 41 42 43 44 45 46 47 48 49 50

000
ASUS43 KGRB 191111
RWRGRB

NORTH-CENTRAL AND NORTHEAST WISCONSIN REGIONAL WEATHER ROUNDUP
NATIONAL WEATHER SERVICE GREEN BAY WI
600 AM CDT THU OCT 19 2017

WIZ005-009-010>012-018-019-191200-
NORTH CENTRAL WISCONSIN

CITY           SKY/WX    TMP DP  RH WIND       PRES   REMARKS
IRONWOOD       CLOUDY    46  24  42 W10       29.95R
MANITOWISH WTR CLOUDY    43  24  46 SW7       29.96R
ARBOR VITAE    PTCLDY    44  24  45 W6        29.97R
EAGLE RIVER    CLOUDY    45  20  37 W9        29.95R
LAND O LAKES   CLOUDY    46  21  37 W3        29.96R
RHINELANDER    CLOUDY    37  25  61 W8        29.99R
PHILLIPS       CLEAR     41  25  53 W3        29.99R
ANTIGO         CLOUDY    40  26  58 W7        30.01R
TOMAHAWK       CLOUDY    36  25  65 CALM      30.01R
MERRILL        CLOUDY    36  27  70 CALM      30.02R
$$

WIZ013-073-191200-
NORTHEAST WISCONSIN

CITY           SKY/WX    TMP DP  RH WIND       PRES   REMARKS
IRON MOUNTAIN  MOCLDY    47  20  34 SW6       29.93R
MARINETTE      MOCLDY    49  25  39 W5        29.99R
OCONTO         CLOUDY    43  28  54 SW6       30.01R
$$

WIZ017-030-035>037-045-191200-
CENTRAL WISCONSIN

CITY           SKY/WX    TMP DP  RH WIND       PRES   REMARKS
MEDFORD        CLOUDY    39  27  62 SW3       30.02R
WAUSAU         PTCLDY    45  28  51 NW6       30.01R
MOSINEE        CLEAR     43  28  56 W8        30.04R
MARSHFIELD     CLOUDY    41  27  57 W7        30.03R
WISC RAPIDS    CLOUDY    44  28  53 W5        30.06R
STEVENS POINT  CLOUDY    45  26  48 W5        30.05R
WAUPACA        CLOUDY    47  28  47 W5        30.05R
SHAWANO        CLOUDY    47  28  45 SW3       30.02R
CLINTONVILLE   CLOUDY    46  27  46 W5        30.03R
WAUTOMA        MOCLDY    43  31  62 W6        30.06R
$$

WIZ038-039-048-051-191200-
FOX VALLEY

CITY           SKY/WX    TMP DP  RH WIND       PRES   REMARKS
NWS GREEN BAY  CLOUDY    48  31  51 SW6       30.03R
APPLETON       PTCLDY    46  25  42 SW9       30.02R
OSHKOSH        CLOUDY    48  29  47 W6        30.04R
FOND DU LAC    PTCLDY    49  28  44 SW7       30.06R
$$

WIZ022-050-052-191200-
EAST CENTRAL WISCONSIN

CITY           SKY/WX    TMP DP  RH WIND       PRES   REMARKS
EPHRAIM        FAIR      52  29  41 W8        29.97R
WASHINGTON ISL NOT AVBL
STURGEON BAY   CLOUDY    50  30  46 W7        30.00R
MANITOWOC      CLOUDY    50  31  48 W7        30.03R
SHEBOYGAN      CLOUDY    50  31  48 W5        30.04R
$$

LMZ563-521-522-541>543-191200-
LAKESHORE

STATION/POSITION TIME  TEMP    WIND        PRES    VSBY  WAVE
                       AIR SEA DIR/SP/G                  HT/PER
                 (UTC) (F)     (DEG/KT/KT) (MB)    (MI)  (FT/S)
SHEBOYGAN LKSHOR 1100   54     290/ 11/ 15 1017.2R
NORTHPORT PIER   1040   55     270/  6/ 12 1014.2R
N MID LAKE BUOY  1050   57 58  260/ 17/ 21 1014.3R         5/ 7
S GREEN BAY BUOY 1100   55 58  230/ 14/ 17 1015.7
SISTER BAY LKSHO 1019   57     280/ 16/ 17   N/A
$$




USA.gov is the U.S. government's official web portal to all federal, state and local government web resources and services.